カタログに戻る

STARLINK-5909

運用中通信VLEO
NORAD 55938·PAYLOAD·🇺🇸 United States

打ち上げ Mar 17, 2023 から Vandenberg Space Force Base

Loading…

次のパス (今後24時間)

TLE

最新Source: CelesTrak SupGP

元期: Sep 14, 2026, 21:28 UTC

1 55938C 23037AA  26257.89493056 -.00044605  00000+0 -37383-2 0  2574
2 55938  70.0021 167.4223 0002848 268.8025 350.0956 14.98351293    14

AllMySatでSTARLINK-5909をリアルタイム追跡

Download on the App Store